Regional Weather Roundup
Issued by NWS Mobile, AL

Home | Current Version | Previous Version | Text Only | Print | Product List | Glossary On
Versions: 1 2 3 4 5 6 7 8 9 10 11 12 13 14 15 16 17 18 19 20 21 22 23 24 25 26 27 28 29 30 31 32 33 34 35 36 37 38 39 40 41 42 43 44 45 46 47 48 49 50
000
ASUS44 KMOB 240812
RWRMOB
REGIONAL WEATHER ROUNDUP
NATIONAL WEATHER SERVICE MOBILE AL
300 AM CDT SUN MAY 24 2015

NOTE: "FAIR" INDICATES FEW OR NO CLOUDS BELOW 12,000 FEET WITH NO
      SIGNIFICANT WEATHER AND/OR OBSTRUCTIONS TO VISIBILITY.

  * THESE STATIONS ARE PART OF THE UNIVERSITY OF SOUTH ALABAMA
    MESONET AND ARE NOT UNDER NWS OR FAA QUALITY CONTROL.

ALZ061>064-240900-
COASTAL ALABAMA

CITY           SKY/WX    TMP DP  RH WIND       PRES   REMARKS
MOBILE REG APT PTCLDY    74  72  93 E8        30.14S
BROOKLEY FIELD CLEAR     76  73  91 SE9       30.14F
USA CAMPUS*      N/A     75  73  94 S3        30.14S
DOG RIVER*     NOT AVBL


CITY           SKY/WX    TMP DP  RH WIND       PRES   REMARKS
MOUNT VERNON*    N/A     63  63 100 CALM      30.15S
SARALAND*      NOT AVBL
BAY MINETTE*   NOT AVBL
LOXLEY*          N/A     70  68  94 E5        30.14F
ROBERTSDALE*     N/A     72  70  94 CALM      30.13F
FAIRHOPE*        N/A     70  70 100 E3        30.12F
ELBERTA*         N/A     73  72  94 CALM      30.13S
FOLEY*         NOT AVBL
GRAND BAY*     NOT AVBL
DAUPHIN ISLND* NOT AVBL
BON SCOUR NWR* NOT AVBL
GULF SHORES    PTCLDY    76  73  88 SE9       30.13S

$$

ALZ051>060-240900-
INTERIOR SOUTHWEST AND SOUTH CENTRAL ALABAMA

CITY           SKY/WX    TMP DP  RH WIND       PRES   REMARKS
GREENVILLE     PTCLDY    69  58  67 SE6       30.19R
EVERGREEN      PTCLDY    64  62  93 CALM      30.18R
CASTLEBERRY*   NOT AVBL
ATMORE*          N/A     72  72 100 E5        30.17R
DIXIE*         NOT AVBL
ANDALUSIA/OPP  PTCLDY    72  60  66 SE6       30.18
ANDALUSIA*     NOT AVBL
FLORALA APT    PTCLDY    70  61  73 E6        30.19F
FLORALA*         N/A     72  63  73 E5        30.15

$$

FLZ001>006-240900-
WESTERN FLORIDA PANHANDLE

CITY           SKY/WX    TMP DP  RH WIND       PRES   REMARKS
PENSACOLA      MOCLDY    76  73  91 E5        30.14S
NAS PENSACOLA  MOCLDY    79  72  79 SE12      30.13R
MILTON         NOT AVBL
WHTNG S FIELD    N/A    N/A N/A N/A MISG      30.15S


CITY           SKY/WX    TMP DP  RH WIND       PRES   REMARKS
WALNUT HILL*   NOT AVBL
JAY*             N/A     72  68  88 E3        30.16R
DUKE FIELD     PTCLDY    73  66  78 SE8       30.15F
CRESTVIEW      MOCLDY    71  66  84 E6        30.17F
VALPARAISO     PTCLDY    77  69  76 E18       30.15F
DESTIN         PTCLDY    77  70  79 E10       30.15F

$$

MSZ076-079-240900-
INTERIOR SOUTHEAST MISSISSIPPI

CITY           SKY/WX    TMP DP  RH WIND       PRES   REMARKS
LEAKESVILLE*     N/A     68  68 100 E2        30.14S
AGRICOLA*      NOT AVBL

$$

MARINE OBSERVATIONS

STATION/POSITION TIME  TEMP    WIND        PRES    WAVE
                       AIR SEA DIR/SP/G            HT/PER
                 (UTC) (F)     (DEG/KT/KT) (MB)    (FT/S)
PASCAGOULA       0700   79     140/ 12/ 16 1019.7
PETIT BOIS ISLND 0700   79     130/ 12/ 17 1020.2
GRAND BAY        0600   79     140/ 14     1021.0S
CEDAR POINT      0700   79     140/ 15     1020.3
E DAUPHIN ISLAND 0700   79     130/ 16/ 18 1019.9F
MIDDLE BAY LIGHT 0700   77     110/ 12     1019.3
USCG MOBILE BAY  0700   76 82  120/  7/  8 1019.4
STATE DOCKS      0700   76 80              1020.3
MEAHER PARK      0700   75     110/  2     1020.3S
WEEKS BAY        0600   71                   N/A
FORT MORGAN      0700   79     150/ 16/ 17 1019.7
12 S ORANGE BCH  0750   80 80  140/ 14/ 16 1019.4R   3/ 5
PENSACOLA BAY    0700   79 83  100/  1/  5 1020.6
64 S DAUPHIN ISL 0750   79 80  130/ 16/ 17 1019.9S   4/ 6
67 S FORT MORGAN 0730   78     130/ 17     1019.6S

$$

SELECTED LOCATIONS ACROSS THE REGION

CITY           SKY/WX    TMP DP  RH WIND       PRES   REMARKS
NEW ORLEANS    PTCLDY    77  71  82 SE7       30.09S
GULFPORT       PTCLDY    79  72  79 SE13      30.10S
PASCAGOULA AP  MOCLDY    73  71  93 SE5       30.12S
PASCAGOULA*    NOT AVBL
HATTIESBURG    CLEAR     68  66  93 CALM      30.14R
LAUREL         CLEAR     66  63  88 CALM      30.14F
MERIDIAN       CLEAR     70  63  78 CALM      30.15S
JACKSON        CLEAR     69  65  86 SE5       30.12S
MONTGOMERY     CLEAR     67  57  70 E7        30.20S
TROY           CLEAR     70  60  70 E8        30.21F
KINSTON*         N/A     68  63  83 CALM        N/A
GENEVA*          N/A     72  63  73 SE5       30.20F
ASHFORD*       NOT AVBL
DOTHAN         PTCLDY    71  63  75 E8        30.24F
PANAMA CITY    CLEAR     73  66  78 E7        30.17S

$$



USA.gov is the U.S. government's official web portal to all federal, state and local government web resources and services.